THOR ABLESTAR DEB, 410

Orbit data source: Space-Track

THOR ABLESTAR DEB, 410 is space debris in LEO originally from a launch on Thu, 29 Jun 1961 UTC launched from the Air Force Eastern Test Range (AFETR). Debris objects in space refer to the collection of defunct objects orbiting the Earth. Examples of debris include non-operational satellites, rocket bodies, and fragments generated from explosions, collisions, or faulty payload assembly.

Loading next visibility...
Identifier
410, 1961-015EK
Orbit
LEO
Last TLE update
15 hours ago
Origin
Manufacturer
Unknown
Mission
Spacecraft
Bus & Motor
Unknown
Mass
Unknown
Launch date (UTC)
1961-06-29 (64 years ago)
Launch vehicle
Unknown
Launch site
Air Force Eastern Test Range (AFETR)
Object type
Payload
Rocket body
Debris
Shape & HBR
Unknown
Radar Cross Section
Medium (>0.1 m² and <1 m²)

Expand to show TLE details & history

TLE from 15 hours ago
0 THOR ABLESTAR DEB
1 00410U 61015EK  25187.31208470  .00000001  00000-0  76919-4 0  9993
2 00410  66.6922 146.8029 0021193 247.2112 262.0213 13.76535770212468
Epoch: 2025-07-06T07:29Z
TLE epoch observation values (Epoch: 2025-07-06T07:29:24.118Z)
Latitude
28.29463°
Longitude
-83.42468°
Altitude
981.031 km
Speed
7.363 km/s
True Right ascension
20h 53m 51s
True Declination
28° 09' 20"
Sunlit
Object was in full shadow at epoch
Visualization orbit readout
Latitude
-56.78°
Longitude
67.57511°
Altitude
986.865 km
Speed
7.363 km/s
Apparent Right ascension
01h 44m 25s
Apparent Declination
-70° 04' 44"
Sunlit
Object is in daylight
Visualization observer readout
Local Sidereal Time
10:08:41
Azimuth
204.936° SW
Elevation
-49.21°
Doppler factor
1
Orbital elements
Apogee altitude
990.199 km
Perigee altitude
959.034 km
Semi-major axis
7,352.753 km
Eccentricity
0.00212
Inclination
66.6922°
RAAN
146.8029°
Arg. of periapsis
247.2112°
True anomaly
Unknown
Mean anomaly
262.0213°
Eccentric anomaly
Unknown
Mean motion
3.44245 °/min
Orbital period
104.58 mins
BSTAR
0.000076919
Loading maneuver chart data...
Loading SW <> Apogee altitude chart data...

THOR ABLESTAR DEB Visibility forecast

Observer location: undefined°, undefined°

Span
Click to sort rows by Start time (UTC) header in descending order
Start Az.
Max El. time (UTC)
Max El. Az.
Max El.
End time (UTC)
End Az.
11 mins2025-07-06 22:34:35.969Z190.185° SSW2025-07-06 22:39:35.969Z126.166° SE40.875°2025-07-06 22:45:35.969Z37.186° NE
9 mins2025-07-07 00:23:35.969Z263.426° W2025-07-07 00:27:35.969Z308.996° NW24.267°2025-07-07 00:32:35.969Z6.043° NNE
5 mins2025-07-07 05:58:35.969Z14.617° NNE2025-07-07 06:00:35.969Z34.695° NE14.111°2025-07-07 06:03:35.969Z64.331° ENE
11 mins2025-07-07 07:44:35.969Z338.687° N2025-07-07 07:49:35.969Z54.66° ENE42.162°2025-07-07 07:55:35.969Z139.326° SSE
7 mins2025-07-07 09:33:35.969Z289.858° WNW2025-07-07 09:36:35.969Z255.963° W19.618°2025-07-07 09:40:35.969Z213.33° SW
6 mins2025-07-07 21:16:35.969Z127.549° SE2025-07-07 21:18:35.969Z105.384° ESE17.401°2025-07-07 21:22:35.969Z65.025° ENE
|